Edwards AFB North Base, CA

12:44 AM PST on November 15, 2019 (GMT -0800)
Edwards AFB North Base

Weather History for K9L2 - September, 2019

Change the Weather History Date:

Sunday, September 1, 2019

  Actual Average (WUND) Record (WUND)
Temperature  
Mean Temperature 82 °F -  
Max Temperature 106 °F - - (-1)
Min Temperature 59 °F - - (-1)
Cooling Degree Days 17    
Growing Degree Days 32 (Base 50)    
Moisture  
Dew Point 37 °F    
Average Humidity 21    
Maximum Humidity 43    
Minimum Humidity 7    
Precipitation  
Precipitation 0.00 in - - ()
Sea Level Pressure  
Sea Level Pressure 29.86 in    
Wind  
Wind Speed 4 mph ()    
Max Wind Speed 15 mph    
Max Gust Speed 21 mph    
Visibility 8.0 miles    
Events      
Averages and records for this station are not official NWS values.
T = Trace of Precipitation, MM = Missing Value Source: Averaged Metar Reports

Daily Weather History Graph

Daily Weather History Graph

Search for Another Location

Airport or City:

Astronomy

Sep. 01, 2019 Rise Set
Actual Time 6:24 AM PDT 7:18 PM PDT
Civil Twilight 5:58 AM PDT 7:44 PM PDT
Nautical Twilight 5:27 AM PDT 8:14 PM PDT
Astronomical Twilight 4:56 AM PDT 8:46 PM PDT
Moon 8:55 AM PDT (9/1) 9:14 PM PDT (9/1)
Length of Visible Light 13h 45m
Length of Day
12h 54m
Waxing Crescent, 8% of the Moon is Illuminated
Sep 1
Waxing Crescent
Sep 5
First Quarter
Sep 13
Full
Sep 21
Last Quarter
Sep 28
New

Hourly Weather History & Observations

Time (PDT) Temp. Dew Point Humidity Pressure Visibility Wind Dir Wind Speed Gust Speed Precip Events Conditions
12:58 AM 73.9 °F 35.8 °F 25% 29.86 in 10.0 mi SW 6.9 mph - N/A   Clear
1:58 AM 68.9 °F 34.9 °F 29% 29.86 in 10.0 mi NE 4.6 mph - N/A   Clear
2:58 AM 67.8 °F 38.3 °F 34% 29.86 in 10.0 mi Calm Calm - N/A   Clear
3:58 AM 63.1 °F 36.9 °F 38% 29.85 in 10.0 mi Calm Calm - N/A   Clear
4:58 AM 60.6 °F 37.6 °F 42% 29.86 in 10.0 mi Calm Calm - N/A   Clear
5:58 AM 59.2 °F 36.3 °F 43% 29.88 in 10.0 mi NNW 3.5 mph - N/A   Clear
6:58 AM 60.1 °F 37.0 °F 42% 29.90 in 10.0 mi NNW 3.5 mph - N/A   Clear
7:58 AM 70.7 °F 38.8 °F 31% 29.91 in 9.0 mi Calm Calm - N/A   Clear
8:58 AM 78.4 °F 38.8 °F 24% 29.91 in 8.0 mi North 3.5 mph - N/A   Clear
9:58 AM 83.1 °F 36.9 °F 19% 29.91 in 8.0 mi SE 5.8 mph - N/A   Clear
10:58 AM 90.1 °F 38.7 °F 16% 29.90 in 7.0 mi South 3.5 mph - N/A   Clear
11:58 AM 94.6 °F 38.1 °F 14% 29.89 in 6.0 mi Calm Calm - N/A   Haze
12:58 PM 101.1 °F 35.4 °F 10% 29.86 in 6.0 mi Calm Calm - N/A   Haze
2:58 PM 105.3 °F 28.8 °F 7% 29.83 in 6.0 mi SSW 8.1 mph - N/A   Haze
3:58 PM 103.6 °F 33.8 °F 9% 29.81 in 7.0 mi SSW 9.2 mph - N/A   Clear
4:28 PM 104.0 °F 32.0 °F 8% 29.80 in 6.0 mi South 8.1 mph - N/A   Haze
4:58 PM 104.5 °F 34.5 °F 9% 29.80 in 6.0 mi South 10.4 mph - N/A   Haze
5:58 PM 103.1 °F 34.9 °F 9% 29.80 in 6.0 mi SSW 15.0 mph - N/A   Haze
6:58 PM 99.0 °F 37.4 °F 12% 29.82 in 6.0 mi SW 10.4 mph 20.7 mph N/A   Haze
7:43 PM 93.2 °F 41.0 °F 16% 29.82 in 7.0 mi SSW 9.2 mph - N/A   Clear
7:58 PM 93.2 °F 38.8 °F 15% 29.83 in 8.0 mi SSW 8.1 mph - N/A   Clear
8:58 PM 89.2 °F 39.4 °F 17% 29.85 in 8.0 mi SSW 10.4 mph - N/A   Clear
9:58 PM 85.5 °F 41.5 °F 21% 29.86 in 9.0 mi SSW 8.1 mph - N/A   Clear
11:58 PM 80.1 °F 39.9 °F 24% 29.86 in 10.0 mi South 5.8 mph - N/A   Clear